Miscellaneous Local Product
Issued by NWS Hastings, NE

Home | Current Version | Previous Version | Text Only | Print | Product List | Glossary Off
Versions: 1 2 3 4 5 6 7 8 9 10 11 12 13 14 15 16 17 18 19 20 21 22 23 24 25 26 27 28 29 30 31 32 33 34 35 36 37 38 39 40 41 42 43 44 45 46 47 48 49 50

000
AXUS43 KGID 301002
MISGRI

GID CWA HOURLY WEATHER ROUNDUP
NATIONAL WEATHER SERVICE HASTINGS NE
400 AM CST FRI JAN 30 2015

NOTE: "FAIR" INDICATES FEW OR NO CLOUDS BELOW 12,000 FEET WITH NO
SIGNIFICANT WEATHER AND/OR OBSTRUCTIONS TO VISIBILITY.

...SOUTH CENTRAL NEBRASKA...

CITY           SKY/WX    TMP DP  RH WIND       PRES   REMARKS
GRAND ISLAND     N/A     19  17  92 SE3       30.49F
HASTINGS       PTCLDY    23  19  85 SE7       30.47F WCI  15
KEARNEY        PTCLDY    19  16  86 SE7       30.46F WCI  10
ORD            CLEAR     21  17  84 S5        30.45F WCI  15
YORK           PTCLDY    19  18  93 CALM      30.51F
AURORA         PTCLDY    19  17  94 SE6       30.49F WCI  11
LEXINGTON      PTCLDY    18  15  86 CALM      30.44F
HOLDREGE       CLEAR     21  15  79 S3        30.46S
HEBRON         CLEAR     14  11  87 CALM      30.52F

...NEBRASKA PANHANDLE...

CITY           SKY/WX    TMP DP  RH WIND       PRES   REMARKS
CHADRON        MOCLDY    36  17  46 SW13      30.25F WCI  27
ALLIANCE       MOCLDY    25  20  81 SE6       30.28F WCI  18
SCOTTSBLUFF    MOCLDY    28  21  75 E9        30.27F WCI  19
SIDNEY         CLOUDY    29  19  66 S7        30.29F WCI  22

...WESTERN AND NORTH CENTRAL NEBRASKA...

CITY           SKY/WX    TMP DP  RH WIND       PRES   REMARKS
VALENTINE      CLEAR     19  15  84 E5        30.35F WCI  12
AINSWORTH      CLEAR     23  19  84 S7        30.38F WCI  15
ONEILL         CLEAR     20  19  96 S7        30.45F WCI  11
BROKEN BOW     CLEAR     20  15  81 CALM      30.41F
IMPERIAL       CLOUDY    28  21  75 SE7       30.38F WCI  21
NORTH PLATTE   MOCLDY    19  15  84 E3        30.41F
MCCOOK         MOCLDY    20  15  81 CALM      30.43F

...EASTERN NEBRASKA...

CITY           SKY/WX    TMP DP  RH WIND       PRES   REMARKS
NORFOLK        PTCLDY    19  16  88 S3        30.49F
SO SIOUX CITY  PTCLDY    18  15  88 SE5       30.54F WCI  11
TEKAMAH        PTCLDY    16  13  88 W5        30.55  WCI   9
COLUMBUS       PTCLDY    12   3  67 CALM      30.52F
ALBION         PTCLDY    16  14  89 CALM      30.49F
OMAHA EPPLEY   CLEAR     22  19  89 NW3       30.55S
OFFUTT AFB     CLEAR     16  14  89 CALM      30.54F
MILLARD        FAIR      21  18  90 CALM      30.55S
LINCOLN        PTCLDY    17  15  92 CALM      30.54F
NEBRASKA CITY  PTCLDY    22  18  85 N3        30.54F
BEATRICE       PTCLDY    15  13  92 CALM      30.54F
FALLS CITY     PTCLDY    17  15  92 NW5       30.55S WCI  10

...NORTHERN KANSAS...

CITY           SKY/WX    TMP DP  RH WIND       PRES   REMARKS
GOODLAND       MOCLDY    29  21  72 S12       30.39F WCI  19
HILL CITY      PTCLDY    16  12  84 W3        30.47F
NORTON         SUNNY     19  14  79 SW5       30.44  WCI  13
PHILLIPSBURG   CLEAR     21  18  86 NE6       30.48F WCI  14
SMITH CENTER   CLEAR     21  18  86 E8        30.50S WCI  12
BELOIT         CLEAR     16  14  93 CALM      30.51F
HAYS           PTCLDY    19   9  63 CALM      30.47F
RUSSELL        PTCLDY    20  17  88 SW7       30.47F WCI  11
CONCORDIA      CLEAR     19  18  95 SE6       30.51F WCI  11
SALINA         CLEAR     24  19  81 CALM      30.53S
TOPEKA         PTCLDY    20  15  81 CALM      30.56S



USA.gov is the U.S. government's official web portal to all federal, state and local government web resources and services.